Wind_Speed
96 94 94 93 92 91 90 88 86 84 82 80 79 78 79 79 77 74 71 68 67 67 65 63 62 61 61 58 57 57 56 56 53 49 46 43 41 39 37 36 34 35 36
87 86 84 84 84 85 86 86 86 84 84 83 83 82 82 82 81 79 76 73 70 69 69 68 66 65 63 62 58 56 55 56 57 53 49 46 43 41 40 38 36 35 36
70 70 70 71 72 73 75 77 79 81 81 83 85 86 85 84 84 83 81 78 75 72 71 72 71 68 66 65 63 59 55 55 58 56 52 49 46 44 42 39 37 36 36
64 63 63 62 63 65 67 68 70 73 76 79 83 87 88 88 88 87 85 83 81 77 74 74 74 73 70 68 67 65 62 56 55 53 52 51 49 47 44 41 38 36 36
63 63 62 61 60 61 63 66 67 68 70 73 77 82 87 91 92 91 89 87 86 82 79 76 76 76 74 71 70 69 67 62 57 53 52 51 51 50 46 43 40 38 37
62 61 60 59 59 59 60 63 67 69 69 69 71 75 81 87 92 94 93 91 89 87 84 80 77 77 76 74 73 72 71 67 61 57 54 50 50 51 49 45 43 41 39
59 58 57 57 57 57 57 59 63 68 71 72 70 70 72 79 86 91 94 95 93 90 87 84 81 78 77 76 74 75 75 73 67 62 59 55 50 50 50 47 45 43 41
54 52 51 50 50 51 53 55 57 62 68 73 73 71 69 71 77 83 90 95 96 93 90 86 83 82 80 78 75 75 78 77 73 67 63 59 55 50 48 48 47 45 43
48 47 45 44 43 43 44 47 51 55 60 66 74 75 73 71 72 77 83 91 96 96 93 87 83 82 81 80 78 75 77 80 78 72 67 63 59 54 49 48 47 46 45
48 47 45 44 42 41 41 41 43 48 52 58 66 74 76 74 72 74 79 85 93 97 96 92 86 81 79 79 78 75 75 81 81 76 70 65 62 59 54 49 48 46 45
51 50 48 46 44 43 42 41 40 42 45 51 57 66 74 76 74 73 75 81 88 96 99 97 93 87 82 79 78 74 72 76 80 78 72 67 65 63 59 54 51 49 47
53 52 51 49 47 45 43 42 41 40 41 44 50 58 68 76 77 74 72 75 83 91 98 100 98 95 90 85 82 79 73 71 76 77 73 70 67 65 62 59 55 53 50
55 54 53 51 50 47 45 43 41 40 39 40 44 51 59 70 76 76 73 71 75 84 94 100 102 101 98 93 87 82 78 72 73 75 73 71 69 66 64 63 60 56 54
58 57 55 53 51 49 46 43 42 40 37 37 40 46 52 61 72 75 75 71 69 75 86 96 101 102 102 99 92 85 82 78 74 75 74 72 70 68 65 64 63 60 58
62 61 58 56 52 50 47 44 42 40 37 35 36 41 47 53 63 72 75 73 69 68 76 89 99 102 102 100 96 90 84 82 78 76 76 73 70 69 67 65 64 62 60
67 65 62 58 55 51 49 45 42 39 36 33 33 37 43 47 55 66 72 74 70 65 68 78 93 100 99 97 95 93 88 85 82 79 77 75 72 69 68 67 65 64 62
71 66 61 54 49 45 43 41 40 37 34 32 31 33 39 44 50 60 68 72 70 63 61 69 82 95 96 94 91 90 88 86 85 82 79 77 74 71 69 68 66 64 63
70 61 49 39 32 27 28 30 31 31 30 29 28 30 36 41 46 54 63 68 68 64 58 60 72 87 93 91 88 87 86 86 85 84 80 78 76 73 70 68 67 66 63
63 49 35 23 16 11 10 14 19 22 24 25 26 28 33 38 42 49 58 64 65 63 59 54 62 77 88 88 85 83 84 85 84 84 82 79 77 75 72 69 67 66 64
57 39 24 17 14 11 7 2 7 13 18 20 23 26 30 35 39 45 53 59 61 59 58 53 55 67 81 84 82 79 80 85 85 83 82 80 78 75 74 71 68 66 65
53 35 16 11 11 11 11 6 2 7 12 16 20 24 28 33 37 41 48 53 56 56 55 53 53 61 76 83 82 78 76 81 83 82 81 80 78 75 73 71 70 67 65
51 35 17 3 5 6 7 3 1 3 7 12 17 22 27 31 34 38 43 48 50 51 50 50 52 60 74 87 87 81 75 76 79 81 81 80 79 76 72 70 69 68 66
53 38 23 10 2 4 3 3 4 3 4 8 14 21 26 29 32 36 40 43 44 44 44 45 49 57 74 89 91 83 78 77 78 80 80 79 79 76 72 70 68 67 67
57 41 29 18 8 4 6 6 6 6 4 7 13 20 25 28 31 34 36 38 39 38 37 38 43 52 71 90 97 91 82 78 77 79 81 78 77 75 72 70 68 67 66
63 47 35 26 17 11 8 8 7 5 4 7 13 20 24 28 30 32 33 34 34 33 32 33 36 46 64 87 99 99 90 80 77 79 80 79 76 74 71 69 67 66 65
70 57 42 32 24 18 14 11 8 6 3 7 12 18 24 28 30 31 30 30 30 29 28 29 32 39 53 76 96 101 96 87 79 78 78 77 74 71 68 67 65 63 62
Wind_Direction
286 283 281 278 275 272 270 266 263 259 255 252 248 244 240 239 239 239 238 238 237 234 233 233 233 233 233 232 233 234 234 229 223 223 224 226 227 228 227 227 228 228 227
288 285 282 279 276 273 271 268 263 259 255 250 247 243 239 237 236 236 236 235 235 234 232 231 232 231 231 229 229 233 235 234 225 220 222 224 226 226 226 226 228 228 227
289 285 281 277 273 270 267 264 261 257 253 248 245 242 239 235 234 234 233 233 232 231 231 231 231 231 230 228 227 229 233 236 229 219 219 221 224 225 225 226 227 228 228
294 290 285 281 275 268 263 259 256 254 250 245 242 239 237 234 232 231 231 231 230 229 229 229 230 230 230 229 227 227 229 232 229 221 220 220 221 223 225 225 227 228 229
298 293 289 283 278 272 264 257 253 250 247 243 239 236 234 232 231 229 229 229 229 228 227 227 229 230 230 229 228 226 228 229 228 224 223 223 221 220 222 224 226 228 229
299 295 290 285 280 275 267 259 252 248 244 240 237 234 232 230 229 228 227 226 227 227 226 225 226 228 229 229 228 226 226 227 228 225 224 224 223 220 219 223 226 227 228
301 298 294 289 283 278 272 265 256 249 244 240 236 233 231 230 229 227 226 225 224 225 225 224 224 226 228 228 228 227 225 226 226 225 225 225 226 224 218 221 225 226 227
307 304 300 294 288 283 277 270 263 253 246 241 237 233 231 231 229 227 226 225 223 222 222 222 223 224 226 227 227 227 225 224 225 225 224 225 226 227 223 223 223 225 227
315 311 306 301 294 287 281 275 267 259 250 244 239 234 231 230 230 228 226 224 223 221 219 218 219 222 224 226 226 227 226 223 223 224 223 223 224 226 227 226 222 224 226
319 316 311 305 299 292 286 280 273 264 255 247 241 235 231 228 228 228 227 225 223 221 218 215 214 217 221 224 225 225 226 223 221 222 222 222 222 223 226 227 224 224 226
318 315 311 306 301 295 288 282 278 270 260 250 242 237 231 227 225 225 227 226 223 221 219 215 212 212 214 218 221 221 222 221 220 221 221 221 220 221 223 225 226 226 228
316 312 309 305 300 295 289 283 278 272 264 254 244 238 232 227 224 223 224 226 224 222 220 216 213 212 212 215 218 220 220 220 220 220 221 220 219 219 221 222 224 225 228
314 310 306 302 298 293 288 283 278 273 266 258 247 238 233 227 223 221 220 223 226 223 221 217 215 213 214 215 217 219 220 220 220 220 221 221 219 219 219 220 221 224 227
316 311 305 300 295 290 285 281 276 271 266 259 250 239 232 228 223 220 218 219 223 225 222 219 216 215 215 216 218 219 220 220 219 220 221 222 220 219 219 220 221 223 226
318 313 306 299 293 287 282 278 273 268 263 258 251 240 232 227 223 219 217 216 218 223 224 221 217 215 215 216 218 219 219 219 219 220 221 222 221 219 219 220 221 222 224
320 314 307 300 292 284 278 273 269 264 259 255 251 241 231 225 221 217 215 214 215 219 223 222 219 215 214 215 217 218 218 218 218 219 221 223 223 221 219 220 221 223 224
323 317 311 304 295 283 274 268 263 259 254 251 248 240 230 224 219 215 213 213 214 216 219 221 220 215 212 212 213 216 217 218 218 218 220 222 223 223 221 220 221 223 224
329 326 323 318 308 291 272 260 255 252 248 246 243 237 229 222 217 213 211 211 212 213 215 218 218 216 211 209 210 213 216 217 218 217 219 221 222 223 222 221 221 223 224
339 339 343 352 357 339 290 257 245 241 239 238 237 233 226 219 215 211 209 209 211 213 213 215 216 215 211 208 207 210 214 217 218 218 219 220 221 223 223 223 222 223 223
349 354 9 43 50 35 16 325 229 227 229 229 229 227 222 216 212 208 206 207 210 212 213 215 216 213 210 206 204 205 209 214 217 218 219 220 221 222 224 224 224 224 224
357 1 20 75 85 61 45 49 145 211 219 222 222 221 217 212 208 205 203 205 208 211 214 217 217 212 208 203 199 198 202 208 212 215 217 219 221 222 224 225 225 225 224
2 3 4 39 134 105 75 54 35 229 222 219 217 215 211 206 204 201 200 202 205 210 214 219 219 214 207 202 197 196 199 203 206 210 213 216 218 220 222 223 224 225 225
7 8 6 357 269 225 264 303 314 300 254 225 215 209 204 200 199 198 197 199 203 209 215 220 222 217 208 203 198 195 195 198 201 206 209 212 215 217 219 220 221 222 223
13 13 14 13 2 315 302 320 327 316 275 230 212 205 199 195 194 194 195 197 202 208 214 220 223 218 210 204 200 195 192 192 195 201 205 208 211 213 215 216 217 219 221
18 19 21 24 24 17 358 356 346 329 276 226 207 200 195 192 191 191 192 196 200 206 212 217 220 216 211 205 203 199 195 193 195 198 203 206 208 211 213 214 215 217 219
21 23 24 26 28 28 24 21 11 347 292 224 205 197 193 190 190 189 191 194 197 202 208 213 215 213 210 207 204 204 201 198 198 199 202 204 206 208 209 211 211 213 216
Height
5630 5626 5622 5621 5621 5621 5624 5628 5633 5639 5646 5653 5661 5669 5677 5684 5693 5702 5710 5718 5726 5734 5740 5747 5754 5759 5765 5771 5777 5782 5787 5792 5798 5804 5810 5815 5820 5824 5829 5833 5836 5840 5845
5600 5596 5592 5590 5589 5589 5592 5595 5601 5609 5616 5624 5633 5643 5652 5662 5672 5681 5691 5700 5708 5716 5724 5731 5738 5745 5752 5759 5766 5771 5775 5780 5785 5792 5799 5806 5812 5817 5821 5826 5830 5834 5838
5575 5570 5566 5564 5562 5562 5563 5566 5570 5577 5586 5595 5605 5615 5626 5638 5649 5659 5669 5679 5688 5698 5706 5714 5722 5730 5738 5746 5753 5759 5765 5770 5774 5780 5788 5795 5802 5808 5814 5818 5823 5827 5831
5555 5549 5545 5541 5539 5538 5539 5540 5544 5549 5556 5565 5576 5586 5599 5612 5623 5634 5645 5656 5667 5678 5688 5697 5705 5713 5722 5731 5739 5747 5754 5760 5765 5771 5777 5784 5792 5799 5805 5810 5815 5820 5824
5535 5530 5525 5522 5518 5516 5516 5518 5521 5525 5532 5539 5549 5559 5570 5583 5596 5608 5621 5633 5645 5657 5669 5679 5688 5696 5706 5716 5725 5733 5741 5749 5756 5762 5768 5774 5780 5788 5796 5802 5807 5812 5817
5517 5511 5506 5501 5498 5496 5495 5496 5499 5503 5509 5516 5525 5535 5544 5555 5567 5581 5595 5609 5622 5635 5648 5660 5670 5679 5688 5699 5709 5719 5727 5736 5744 5752 5759 5765 5770 5777 5785 5793 5799 5805 5810
5500 5493 5487 5482 5478 5475 5474 5474 5476 5480 5486 5493 5503 5513 5522 5531 5541 5555 5569 5582 5598 5614 5628 5640 5651 5662 5671 5682 5693 5703 5713 5722 5732 5740 5748 5756 5762 5767 5774 5783 5790 5796 5802
5485 5478 5471 5465 5461 5457 5455 5454 5454 5458 5463 5469 5480 5492 5502 5511 5519 5531 5542 5557 5574 5591 5606 5620 5632 5643 5654 5665 5676 5687 5697 5708 5718 5728 5736 5745 5753 5759 5764 5772 5780 5788 5794
5474 5466 5459 5452 5447 5442 5439 5436 5435 5437 5442 5447 5455 5467 5479 5489 5500 5510 5519 5533 5549 5566 5584 5601 5614 5626 5637 5648 5660 5671 5682 5693 5703 5714 5724 5733 5742 5750 5756 5762 5770 5778 5785
5463 5455 5447 5441 5435 5429 5425 5422 5419 5419 5422 5427 5433 5443 5455 5467 5478 5489 5500 5512 5526 5543 5561 5580 5596 5609 5621 5632 5644 5656 5667 5678 5689 5700 5710 5721 5730 5739 5747 5753 5761 5769 5775
5451 5443 5435 5428 5421 5416 5411 5408 5405 5403 5404 5408 5413 5421 5432 5445 5458 5469 5480 5491 5505 5520 5538 5557 5575 5590 5603 5615 5627 5640 5651 5663 5674 5685 5697 5707 5718 5727 5736 5744 5751 5760 5766
5440 5430 5421 5413 5407 5401 5396 5393 5390 5389 5388 5390 5395 5401 5410 5423 5437 5451 5463 5471 5484 5498 5515 5534 5552 5568 5583 5597 5610 5623 5636 5649 5660 5671 5682 5693 5704 5714 5724 5733 5741 5750 5757
5428 5416 5406 5397 5390 5384 5380 5377 5375 5373 5374 5375 5378 5383 5390 5401 5415 5431 5445 5455 5465 5478 5493 5511 5529 5546 5563 5578 5592 5607 5622 5635 5647 5658 5669 5680 5691 5702 5712 5721 5731 5739 5748
5411 5399 5388 5379 5371 5365 5362 5360 5359 5358 5359 5360 5362 5366 5373 5382 5395 5410 5426 5439 5449 5459 5473 5490 5508 5526 5541 5558 5575 5591 5606 5620 5633 5644 5656 5667 5679 5690 5700 5710 5720 5729 5738
5391 5378 5366 5357 5350 5344 5341 5341 5341 5342 5344 5346 5347 5351 5358 5366 5377 5391 5407 5422 5435 5444 5456 5471 5487 5503 5523 5542 5559 5575 5590 5605 5619 5631 5643 5654 5666 5677 5689 5699 5709 5719 5727
5371 5355 5342 5332 5325 5321 5319 5321 5323 5326 5330 5332 5334 5337 5344 5352 5361 5374 5389 5406 5420 5431 5441 5454 5467 5487 5506 5525 5542 5559 5575 5590 5605 5618 5630 5642 5653 5665 5677 5688 5698 5708 5716
5350 5332 5316 5305 5298 5295 5296 5300 5305 5310 5316 5320 5323 5326 5331 5339 5348 5360 5375 5391 5407 5419 5430 5439 5451 5469 5490 5510 5528 5545 5561 5576 5590 5604 5617 5629 5641 5653 5665 5677 5688 5698 5707
5330 5310 5295 5285 5278 5276 5278 5283 5289 5297 5304 5308 5312 5315 5320 5328 5337 5348 5362 5378 5393 5408 5419 5426 5435 5453 5474 5494 5513 5531 5546 5562 5576 5590 5603 5615 5628 5640 5653 5665 5676 5687 5697
5316 5298 5286 5278 5273 5270 5269 5273 5279 5286 5293 5299 5303 5307 5312 5319 5328 5338 5351 5367 5382 5396 5408 5416 5425 5439 5459 5480 5500 5518 5533 5548 5562 5577 5590 5603 5615 5628 5640 5653 5665 5676 5688
5308 5293 5285 5280 5276 5272 5271 5272 5276 5281 5286 5291 5296 5300 5305 5312 5321 5331 5343 5357 5372 5385 5398 5407 5416 5428 5446 5467 5487 5505 5519 5533 5548 5562 5577 5590 5602 5615 5628 5641 5654 5665 5676
5305 5293 5286 5282 5279 5276 5274 5274 5276 5279 5283 5287 5290 5294 5299 5306 5315 5325 5337 5350 5363 5376 5387 5397 5406 5417 5434 5454 5474 5490 5503 5517 5533 5548 5562 5577 5591 5605 5615 5628 5641 5653 5664
5305 5294 5287 5284 5281 5279 5277 5277 5278 5280 5282 5284 5287 5291 5296 5303 5311 5320 5331 5343 5356 5367 5377 5386 5395 5406 5420 5439 5458 5473 5489 5503 5519 5536 5550 5563 5577 5590 5603 5616 5628 5641 5652
5308 5296 5289 5285 5283 5281 5280 5280 5281 5281 5282 5283 5285 5288 5293 5300 5308 5317 5327 5338 5349 5360 5369 5377 5384 5394 5407 5426 5445 5462 5475 5488 5505 5520 5536 5550 5564 5578 5591 5603 5615 5627 5639
5313 5300 5292 5287 5285 5283 5282 5282 5282 5282 5282 5282 5284 5287 5292 5299 5306 5315 5325 5335 5344 5354 5362 5369 5376 5383 5394 5411 5430 5446 5460 5475 5490 5505 5522 5538 5552 5566 5579 5591 5602 5614 5626
5321 5307 5297 5291 5287 5286 5284 5283 5282 5281 5281 5282 5284 5287 5292 5299 5306 5314 5323 5332 5341 5349 5355 5362 5368 5374 5382 5396 5412 5429 5445 5461 5477 5493 5510 5526 5540 5553 5566 5578 5590 5602 5613
5331 5315 5304 5297 5292 5289 5286 5284 5282 5281 5281 5282 5284 5288 5293 5299 5306 5313 5322 5330 5338 5345 5351 5357 5362 5367 5374 5384 5399 5414 5430 5448 5466 5483 5499 5515 5529 5542 5553 5565 5578 5589 5600